User: anonymous   Login
Location: Caltech
(34.1382°N, 118.1253°W)
Time: 22:38:59
(UTC-07:00)
Language:

Cosmos 1833 Rocket - Orbit

View from above orbital plane
View from above orbital plane
View from above satellite
View from above satellite

Ground track
Ground track

The orbit data is extracted from the following two-line orbital elements,

1 17590U 87027B   16180.18368929  .00000060  00000-0  53882-4 0  9994
2 17590  71.0011 175.4047 0003461 144.5174 215.6180 14.16725526513980
Epoch (UTC): 28 June 2016 04:24:30
Eccentricity: 0.0003461
inclination: 71.0011°
perigee height: 834 km
apogee height: 839 km
right ascension of ascending node: 175.4047°
argument of perigee: 144.5174°
revolutions per day: 14.16725526
mean anomaly at epoch: 215.6180°
orbit number at epoch: 51398

The dashed part of the orbit path shows where the satellite is in the earth's shadow,  

DLR